Location: Rounton
(54.4000°N, 1.3500°W)
Time: 17:31:51
(UTC+00:00)

Tiros 1 - Pass Details

Date: 03 December 2021
Orbit: 629 x 664 km, 48.4° (Epoch: 19 January)

Event Time Altitude Azimuth Distance (km) Brightness Sun altitude
Rises 18:21:41 0° 198° (SSW) 2,916 10.9 -21.6°
Reaches altitude 10° 18:25:05 10° 172° (S) 2,018 9.7 -22.1°
Enters shadow 18:26:01 12° 161° (SSE) 1,879 9.4 -22.3°
